Flag for U.S.A. Weather past 2 weeks in Augusta, Maine, U.S.A.

Now
42 °F

Sunny.


Feels Like: 40 °F
Forecast: 24 / 45 °F
Wind: 3 mph from Southeast

Location: Augusta State Airport


UV Index: 5 (Moderate)

Visibility: 10 mi


Pressure: 30.76 "Hg

Humidity: 28%

Dew point: 11 °F

Location of AugustaLocation

Historic Weather in Augusta

°F

Augusta temperature yesterday

Maximum temperature yesterday: 38 °F (at 12:53 AM)
Minimum temperature yesterday: 24 °F (at 11:53 PM)
Average temperature yesterday: 31 °F

Past Weeks' High & Low Weather Summary

 TemperatureHumidityPressure
High68 °F (Apr 14, 2:53 PM)100% (Apr 5, 12:53 AM)30.86 "Hg (Apr 5, 12:53 AM)
Low20 °F (Apr 17, 4:53 AM)19% (Apr 11, 2:53 PM)29.27 "Hg (Apr 8, 4:04 PM)
Average42 °F62%29.98 "Hg
* Reported Apr 2 3:53 PM — Apr 17 3:53 PM, Augusta, Weather by CustomWeather, © 2014

Note: Actual official high and low records may vary slightly from our data, if they occured in-between our weather recording intervals... More about our weather records

Advertising

Historic Weather Conditions — Data for Previous 24 hours

 ConditionsComfort  
Time TempWeatherWind HumidityBarometerVisibility
3:53 PM
Apr 17
42 °FSunny.3 mph28%30.76 "Hg10 mi
2:53 PM42 °FSunny.No wind29%30.77 "Hg10 mi
1:53 PM40 °FSunny.No wind29%30.79 "Hg10 mi
12:53 PM39 °FSunny.No wind31%30.81 "Hg10 mi
11:53 AM37 °FSunny.5 mph36%30.83 "Hg10 mi
10:53 AM34 °FSunny.N/A40%30.86 "Hg10 mi
9:53 AM32 °FSunny.7 mph45%30.86 "Hg10 mi
8:53 AM30 °FSunny.12 mph51%30.84 "Hg10 mi
7:53 AM26 °FSunny.7 mph63%30.83 "Hg10 mi
6:53 AM22 °FSunny.3 mph75%30.81 "Hg10 mi
5:53 AM20 °FClear.No wind78%30.78 "Hg10 mi
4:53 AM20 °FClear.3 mph78%30.76 "Hg10 mi
3:53 AM22 °FClear.5 mph68%30.74 "Hg10 mi
2:53 AM22 °FClear.3 mph72%30.71 "Hg10 mi
1:53 AM22 °FClear.5 mph68%30.69 "Hg10 mi
12:53 AM23 °FClear.7 mph68%30.67 "Hg10 mi
11:53 PM
Apr 16
24 °FClear.6 mph62%30.65 "Hg10 mi
10:53 PM26 °FClear.6 mph57%30.64 "Hg10 mi
9:53 PM27 °FClear.9 mph53%30.60 "Hg10 mi
8:53 PM28 °FClear.7 mph49%30.57 "Hg10 mi
7:53 PM30 °FSunny.9 mph43%30.52 "Hg10 mi
6:53 PM33 °FSunny.9 mph38%30.48 "Hg10 mi
5:53 PM34 °FSunny.9 mph35%30.45 "Hg10 mi
4:53 PM35 °FSunny.16 mph32%30.41 "Hg10 mi
Weather by CustomWeather, © 2014

See weather overview